Location: Jackson
(35.6140°N, 88.8140°W)
Time: 20:54:50
(UTC-06:00)

ZACube-1 - Visible Passes

Search period start: 13 December 2019 00:00
Search period end: 23 December 2019 00:00
Orbit: 584 x 667 km, 97.6° (Epoch: 13 December)

Date Brightness Start Highest point End Pass type
(mag) Time Alt. Az. Time Alt. Az. Time Alt. Az.
13 Dec ? 05:19:17 10° NE 05:22:28 21° E 05:25:37 10° SE visible
13 Dec ? 17:46:30 10° S 17:50:54 51° W 17:55:16 10° NNW visible
14 Dec ? 05:37:42 10° NNE 05:41:32 35° E 05:45:19 10° SSE visible
14 Dec ? 18:05:56 10° SSW 18:09:56 30° W 18:13:54 10° NW visible
15 Dec ? 05:56:24 10° NNE 06:00:33 62° E 06:04:38 10° S visible
15 Dec ? 18:25:50 10° SW 18:29:00 19° W 18:32:10 10° NW visible
16 Dec ? 06:15:21 10° N 06:19:30 75° WNW 06:23:37 10° SSW visible
16 Dec ? 17:07:14 10° SSE 17:11:38 56° ENE 17:15:59 10° N visible
16 Dec ? 18:46:48 10° WSW 18:48:08 11° W 18:49:28 10° WNW visible
17 Dec ? 05:00:16 10° ENE 05:01:57 12° E 05:03:37 10° ESE visible
17 Dec ? 17:26:04 10° SSE 17:30:35 87° W 17:35:01 10° NNW visible
18 Dec ? 05:17:56 10° NE 05:21:04 21° E 05:24:11 10° SE visible
18 Dec ? 17:45:11 10° S 17:49:34 51° W 17:53:52 10° NNW visible
19 Dec ? 05:36:19 10° NNE 05:40:08 34° E 05:43:54 10° SSE visible
19 Dec ? 18:04:38 10° SSW 18:08:35 30° W 18:12:30 10° NW visible
20 Dec ? 05:55:02 10° NNE 05:59:08 61° E 06:03:12 10° S visible
20 Dec ? 18:24:31 10° SW 18:27:40 19° W 18:30:46 10° NW visible
21 Dec ? 06:13:57 10° N 06:18:05 76° WNW 06:22:12 10° SSW visible
21 Dec ? 17:05:57 10° SSE 17:10:17 54° ENE 17:14:33 10° N visible
21 Dec ? 18:45:31 10° WSW 18:46:47 11° W 18:48:02 10° WNW visible
22 Dec ? 04:58:56 10° ENE 05:00:32 12° E 05:02:08 10° ESE visible
22 Dec ? 17:24:46 10° SSE 17:29:13 88° WSW 17:33:36 10° NNW visible
